WetterOnline ( https://www.wetteronline.de )

Wetter aktuell Pomáz

Aktuelles Wetter: Budapest (139m)

6-stündlich | Neueste Meldungen
Ortszeit Temperatur Wetter
Di, 25.06. 14:00 30.1° C fast wolkenlos
Di, 25.06. 8:00 24.3° C leicht bewölkt
Di, 25.06. 2:00 21.3° C wolkig
Mo, 24.06. 20:00 27.1° C leicht bewölkt
Mo, 24.06. 14:00 27.7° C leicht bewölkt
Mo, 24.06. 8:00 21.6° C wolkig
Mo, 24.06. 2:00 19.2° C leicht bewölkt
So, 23.06. 20:00 22.2° C leicht bewölkt
Ortszeit Temperatur Wetter
Di, 25.06. 19:00 30.4° C leicht bewölkt
Di, 25.06. 18:00 30.9° C fast wolkenlos
Di, 25.06. 17:00 30.9° C leicht bewölkt
Di, 25.06. 16:00 30.7° C fast wolkenlos
Di, 25.06. 15:00 30.7° C leicht bewölkt
Di, 25.06. 14:00 30.1° C fast wolkenlos
Ortszeit Relative Feuchte Sichtweite
Di, 25.06. 14:00 53% 20 km
Di, 25.06. 8:00 68% 20 km
Di, 25.06. 2:00 80% 20 km
Mo, 24.06. 20:00 58% 20 km
Mo, 24.06. 14:00 58% 20 km
Mo, 24.06. 8:00 75% 20 km
Mo, 24.06. 2:00 86% 20 km
So, 23.06. 20:00 85% 20 km
Ortszeit Relative Feuchte Sichtweite
Di, 25.06. 19:00 49% 20 km
Di, 25.06. 18:00 48% 15 km
Di, 25.06. 17:00 47% 20 km
Di, 25.06. 16:00 47% 19 km
Di, 25.06. 15:00 49% 20 km
Di, 25.06. 14:00 53% 20 km
Ortszeit Niederschlagsmenge Niederschlagsart
Di, 25.06. 14:00 0.0 l/m2 in 6 Std. -
Di, 25.06. 8:00 0.0 l/m2 in 12 Std. -
Di, 25.06. 2:00 0.0 l/m2 in 6 Std. -
Mo, 24.06. 20:00 0.0 l/m2 in 12 Std. -
Mo, 24.06. 14:00 0.0 l/m2 in 6 Std. -
Mo, 24.06. 8:00 0.0 l/m2 in 12 Std. -
Mo, 24.06. 2:00 0.0 l/m2 in 6 Std. -
So, 23.06. 20:00 48 l/m2 in 12 Std. Gewitter, Regen
Ortszeit Niederschlagsmenge Niederschlagsart
Di, 25.06. 19:00 keine Meldung -
Di, 25.06. 18:00 keine Meldung -
Di, 25.06. 17:00 keine Meldung -
Di, 25.06. 16:00 keine Meldung -
Di, 25.06. 15:00 keine Meldung -
Di, 25.06. 14:00 keine Meldung -
Ortszeit Stärke Spitze Richtung
km/h Bft. km/h Grad Sektor
Di, 25.06. 14:00 11 2 - 70° O
Di, 25.06. 8:00 7 2 - 20° N
Di, 25.06. 2:00 7 2 - 360° N
Mo, 24.06. 20:00 11 2 - 80° O
Mo, 24.06. 14:00 11 2 - 20° N
Mo, 24.06. 8:00 11 2 - 350° N
Mo, 24.06. 2:00 11 2 - 340° N
So, 23.06. 20:00 7 2 - 10° N
Ortszeit Stärke Spitze Richtung
km/h Bft. km/h Grad Sektor
Di, 25.06. 19:00 7 2 - 110° O
Di, 25.06. 18:00 11 2 - 120° SO
Di, 25.06. 17:00 11 2 - 90° O
Di, 25.06. 16:00 14 3 - 110° O
Di, 25.06. 15:00 11 2 - 100° O
Di, 25.06. 14:00 11 2 - 70° O
Ortszeit Untergrenze Bedeckung Gattung
total tief tief mittel hoch
Di, 25.06. 14:00 1260 m 1/8 1/8 Cu - -
Di, 25.06. 8:00 - 6/8 0/8 - - Cs
Di, 25.06. 2:00 - 8/8 0/8 - - Cs
Mo, 24.06. 20:00 - 2/8 0/8 - - Ci
Mo, 24.06. 14:00 1230 m 6/8 6/8 Cu - Ci
Mo, 24.06. 8:00 - 8/8 0/8 - - Cs
Mo, 24.06. 2:00 - 5/8 5/8 - As Ci
So, 23.06. 20:00 - 3/8 3/8 - Ac -
Ortszeit Bedeckungsgrad in Achtel und Wolkenuntergrenze
Di, 25.06. 19:00 3(1500m)
Di, 25.06. 18:00 1(1500m)
Di, 25.06. 17:00 2(1500m)
Di, 25.06. 16:00 1(1500m)
Di, 25.06. 15:00 3(1350m)
Di, 25.06. 14:00 1(1260m)
Ortszeit Luftdruck NN (hPa) Tendenz (hPa in 3 Std.)
Di, 25.06. 14:00 1023 + 0,2
Di, 25.06. 8:00 1023 + 0,8
Di, 25.06. 2:00 1022 + 0,2
Mo, 24.06. 20:00 1020 + 1,0
Mo, 24.06. 14:00 1019 + 0,7
Mo, 24.06. 8:00 1018 + 0,7
Mo, 24.06. 2:00 1017 + 1,1
So, 23.06. 20:00 1015 + 0,4
Ortszeit Luftdruck NN (hPa) Tendenz (hPa in 3 Std.)
Di, 25.06. 19:00 1023 - 0,2
Di, 25.06. 18:00 1023 - 0,5
Di, 25.06. 17:00 1023 - 0,4
Di, 25.06. 16:00 1023 - 0,3
Di, 25.06. 15:00 1023 0,0
Di, 25.06. 14:00 1023 + 0,2
Ortszeit Schneehöhe (cm)
Di, 25.06. 14:00 -
Di, 25.06. 8:00 -
Di, 25.06. 2:00 -
Mo, 24.06. 20:00 -
Mo, 24.06. 14:00 -
Mo, 24.06. 8:00 -
Mo, 24.06. 2:00 -
So, 23.06. 20:00 -
Ortszeit Schneehöhe (cm)
Di, 25.06. 19:00 -
Di, 25.06. 18:00 -
Di, 25.06. 17:00 -
Di, 25.06. 16:00 -
Di, 25.06. 15:00 -
Di, 25.06. 14:00 -
Link zu dieser Seite / Seite empfehlen

Das Wetter in ...